Regional Weather Roundup
Issued by NWS Burlington, VT

Home | Current Version | Previous Version | Text Only | Print | Product List | Glossary On
Versions: 1 2 3 4 5 6 7 8 9 10 11 12 13 14 15 16 17 18 19 20 21 22 23 24 25 26 27 28 29 30 31 32 33 34 35 36 37 38 39 40 41 42 43 44 45 46 47 48 49 50
000
ASUS41 KBTV 191610
RWRBTV
VERMONT REGIONAL WEATHER ROUNDUP
NATIONAL WEATHER SERVICE BURLINGTON VT
1200 PM EDT SUN APR 19 2015

NOTE: "FAIR" INDICATES FEW OR NO CLOUDS BELOW 12,000 FEET WITH NO
SIGNIFICANT WEATHER AND/OR OBSTRUCTIONS TO VISIBILITY.

* THESE REPORTS ARE NOT UNDER NWS QUALITY CONTROL AND/OR DO NOT
  REPORT WEATHER SUCH AS PRECIPITATION AND FOG.

VTZ001>019-191700-
_____VERMONT_____


CITY           SKY/WX    TMP DP  RH WIND       PRES   REMARKS
BURLINGTON     MOSUNNY   48  28  46 NW9       30.31F
MONTPELIER     SUNNY     46  25  43 CALM      30.31F
MORRISVILLE    SUNNY     47  24  40 VRB6      30.30F
ST. JOHNSBURY*   N/A     47  25  42 MISG      30.27F
LYNDONVILLE*     N/A     46  23  40 W8        30.29F
MIDDLEBURY*      N/A     49  32  51 N7        30.29F
RUTLAND*       SUNNY     48  30  49 NE5       30.27F
SPRINGFIELD    SUNNY     50  27  40 CALM      30.27F
HIGHGATE*        N/A     45  27  50 N7        30.32F
NEWPORT*         N/A     43  26  52 N6        30.30F
BENNINGTON     SUNNY     53  28  38 CALM      30.24F

_____LAKE CHAMPLAIN_____


CITY           SKY/WX    TMP DP  RH WIND       PRES   REMARKS

$$

NYZ007-026>031-035-052-083-191700-
_____NORTHERN NEW YORK_____


CITY           SKY/WX    TMP DP  RH WIND       PRES   REMARKS
PLATTSBURGH    SUNNY     45  27  49 E8        30.33F
SARANAC LAKE   SUNNY     44  23  43 MISG      30.25S
MASSENA        SUNNY     49  27  42 E8        30.34S
OGDENSBURG*    SUNNY     52  28  40 E9        30.30F
POTSDAM*       SUNNY     48  32  53 NE6       30.30F
WATERTOWN      SUNNY     51  29  42 E8G16     30.27F
FT DRUM        SUNNY     51  27  38 E10G18    30.25F
ALBANY         MOSUNNY   54  30  40 NE9       30.28F
GLENS FALLS    SUNNY     50  29  44 VRB3      30.29F

$$
NHZ002-005-011-191700-
_____NEW HAMPSHIRE_____


CITY           SKY/WX    TMP DP  RH WIND       PRES   REMARKS
LEBANON        SUNNY     51  28  41 W8        30.27F
KEENE          SUNNY     54  27  35 SW9       30.25F
MT WASHINGTON  MOSUNNY   25   9  50 N21         N/A  WCI  10
PLYMOUTH         N/A     52  34  49 W6        30.25S
WHITEFIELD     SUNNY     48  24  39 NW9       30.27S

$$

_____REGIONAL QUEBEC LOCATIONS_____


CITY           SKY/WX    TMP DP  RH WIND       PRES   REMARKS
MONTREAL       MOSUNNY   46  21  36 VRB6      30.34F
QUEBEC CITY    MOSUNNY   48  19  32 VRB6      30.26F
SHERBROOKE     PTSUNNY   45  28  53 VRB9      30.29S

_____REGIONAL ONTARIO LOCATIONS_____


CITY           SKY/WX    TMP DP  RH WIND       PRES   REMARKS
OTTAWA         MOSUNNY   46  25  42 E12G17    30.32F

______KEY______
VSB  - VISIBILITY IN MILES
WCI  - WIND CHILL INDEX
HX   - HEAT INDEX
$$
NNNN



USA.gov is the U.S. government's official web portal to all federal, state and local government web resources and services.